N8552R KSAN-KLAS

Flight info

Callsign N8552R
Flight time 0h 50m
Altitude 29000
Route PADRZ2 CHKNN DCT SEBBY DCT YELAH DCT MISEN RNDRZ4
Aircraft C750/M-VGDW/C

Departure

Time 2026-05-06 04:21
Airport San Diego International Airport (KSAN)

Arrival

Time 2026-05-06 05:11
Airport Harry Reid International Airport (KLAS)
Time Latitude Longitude Altitude Speed Heading
2026-05-06 04:03 32.73354 -117.17871 6 ft 0 kts 94°
2026-05-06 04:17 32.73354 -117.17870 24 ft 1 kts 94°
2026-05-06 04:18 32.73352 -117.17864 24 ft 1 kts 112°
2026-05-06 04:18 32.73341 -117.17871 26 ft 3 kts 255°
2026-05-06 04:18 32.73345 -117.17937 24 ft 13 kts 250°
2026-05-06 04:18 32.73268 -117.17977 24 ft 12 kts 189°
2026-05-06 04:19 32.73219 -117.17929 24 ft 9 kts 106°
2026-05-06 04:19 32.73200 -117.17850 27 ft 12 kts 106°
2026-05-06 04:19 32.73175 -117.17745 24 ft 15 kts 106°
2026-05-06 04:19 32.73143 -117.17613 26 ft 18 kts 108°
2026-05-06 04:20 32.73056 -117.17528 24 ft 15 kts 175°
2026-05-06 04:20 32.73026 -117.17604 24 ft 0 kts 285°
2026-05-06 04:20 32.73028 -117.17611 24 ft 5 kts 286°
2026-05-06 04:20 32.73088 -117.17859 27 ft 82 kts 286°
2026-05-06 04:21 32.73313 -117.18819 262 ft 132 kts 286°
2026-05-06 04:21 32.73546 -117.19899 970 ft 137 kts 287°
2026-05-06 04:21 32.74016 -117.20939 1649 ft 148 kts 304°
2026-05-06 04:21 32.74623 -117.21931 2444 ft 152 kts 304°
2026-05-06 04:22 32.75262 -117.22971 3233 ft 157 kts 305°
2026-05-06 04:22 32.75906 -117.24056 4016 ft 163 kts 304°
2026-05-06 04:22 32.76520 -117.25162 4950 ft 159 kts 304°
2026-05-06 04:23 32.77660 -117.27421 6533 ft 174 kts 300°
2026-05-06 04:23 32.78299 -117.28788 7007 ft 203 kts 303°
2026-05-06 04:23 32.79099 -117.30307 7481 ft 230 kts 304°
2026-05-06 04:23 32.80042 -117.31982 7992 ft 257 kts 309°
2026-05-06 04:24 32.81200 -117.33732 8689 ft 275 kts 309°
2026-05-06 04:24 32.82342 -117.35521 9809 ft 276 kts 309°
2026-05-06 04:24 32.83530 -117.37379 10446 ft 292 kts 309°
2026-05-06 04:24 32.84829 -117.39388 10669 ft 319 kts 309°
2026-05-06 04:25 32.86243 -117.41568 10814 ft 344 kts 309°
2026-05-06 04:25 32.87705 -117.43837 11573 ft 346 kts 308°
2026-05-06 04:25 32.89162 -117.46110 12318 ft 350 kts 309°
2026-05-06 04:25 32.90655 -117.48433 13057 ft 354 kts 309°
2026-05-06 04:26 32.92137 -117.50742 13839 ft 356 kts 309°
2026-05-06 04:26 32.93662 -117.53114 14406 ft 363 kts 309°
2026-05-06 04:26 32.95202 -117.55510 15068 ft 366 kts 308°
2026-05-06 04:26 32.96753 -117.57929 15730 ft 368 kts 308°
2026-05-06 04:27 32.98316 -117.60367 16413 ft 372 kts 309°
2026-05-06 04:27 32.99896 -117.62827 17166 ft 374 kts 308°
2026-05-06 04:27 33.01471 -117.65283 17741 ft 381 kts 309°
2026-05-06 04:27 33.03092 -117.67821 18400 ft 386 kts 308°
2026-05-06 04:28 33.04726 -117.70386 19081 ft 388 kts 308°
2026-05-06 04:28 33.06401 -117.72913 19758 ft 390 kts 313°
2026-05-06 04:28 33.08445 -117.75050 20410 ft 391 kts 321°
2026-05-06 04:28 33.10523 -117.77127 21064 ft 395 kts 320°
2026-05-06 04:29 33.12608 -117.79285 21813 ft 395 kts 319°
2026-05-06 04:29 33.14705 -117.81444 22442 ft 400 kts 320°
2026-05-06 04:29 33.16908 -117.83504 22950 ft 405 kts 328°
2026-05-06 04:29 33.19442 -117.84879 23636 ft 406 kts 340°
2026-05-06 04:30 33.22212 -117.85608 24079 ft 411 kts 354°
2026-05-06 04:30 33.25076 -117.85590 24605 ft 413 kts
2026-05-06 04:30 33.27890 -117.84806 25116 ft 417 kts 18°
2026-05-06 04:30 33.30521 -117.83273 25588 ft 422 kts 30°
2026-05-06 04:31 33.33022 -117.81389 26058 ft 427 kts 31°
2026-05-06 04:31 33.35544 -117.79482 26535 ft 431 kts 31°
2026-05-06 04:31 33.38075 -117.77585 27015 ft 435 kts 31°
2026-05-06 04:31 33.40661 -117.75647 27495 ft 440 kts 31°
2026-05-06 04:32 33.43272 -117.73678 27981 ft 444 kts 31°
2026-05-06 04:32 33.45902 -117.71692 28490 ft 449 kts 30°
2026-05-06 04:32 33.48526 -117.69715 29014 ft 452 kts 32°
2026-05-06 04:32 33.51236 -117.67674 29081 ft 466 kts 32°
2026-05-06 04:33 33.54023 -117.65570 29084 ft 480 kts 32°
2026-05-06 04:33 33.56886 -117.63404 29086 ft 492 kts 32°
2026-05-06 04:33 33.59816 -117.61189 29084 ft 499 kts 32°
2026-05-06 04:34 33.65642 -117.56774 29081 ft 495 kts 32°
2026-05-06 04:34 33.71482 -117.52352 29072 ft 494 kts 32°
2026-05-06 04:35 33.77256 -117.47965 29082 ft 491 kts 33°
2026-05-06 04:35 33.82995 -117.43597 29078 ft 486 kts 33°
2026-05-06 04:36 33.88706 -117.39247 29080 ft 484 kts 33°
2026-05-06 04:36 33.94360 -117.34931 29080 ft 484 kts 33°
2026-05-06 04:37 34.00059 -117.30576 29080 ft 484 kts 33°
2026-05-06 04:37 34.05720 -117.26242 29073 ft 481 kts 34°
2026-05-06 04:38 34.11297 -117.21966 29070 ft 469 kts 34°
2026-05-06 04:38 34.16765 -117.17764 29009 ft 464 kts 34°
2026-05-06 04:39 34.17683 -117.17058 29024 ft 463 kts 34°
2026-05-06 04:39 34.20034 -117.15252 29044 ft 460 kts 34°
2026-05-06 04:40 34.24433 -117.11877 29021 ft 460 kts 35°
2026-05-06 04:41 34.29804 -117.07708 29000 ft 461 kts 34°
2026-05-06 04:41 34.35225 -117.03547 29001 ft 459 kts 35°
2026-05-06 04:42 34.40582 -116.99390 28995 ft 455 kts 35°
2026-05-06 04:42 34.45907 -116.95273 28980 ft 453 kts 35°
2026-05-06 04:43 34.51212 -116.91154 28971 ft 452 kts 35°
2026-05-06 04:43 34.56482 -116.87062 28976 ft 452 kts 35°
2026-05-06 04:44 34.61794 -116.82928 28969 ft 452 kts 36°
2026-05-06 04:44 34.67095 -116.78797 28979 ft 451 kts 36°
2026-05-06 04:45 34.72352 -116.74694 28986 ft 451 kts 35°
2026-05-06 04:45 34.77644 -116.70558 28996 ft 451 kts 36°
2026-05-06 04:46 34.82932 -116.66419 28994 ft 452 kts 36°
2026-05-06 04:46 34.87980 -116.61980 28981 ft 449 kts 41°
2026-05-06 04:47 34.92895 -116.57238 28969 ft 450 kts 40°
2026-05-06 04:47 34.97759 -116.52518 28954 ft 451 kts 41°
2026-05-06 04:48 35.02655 -116.47760 28933 ft 453 kts 40°
2026-05-06 04:48 35.07603 -116.42953 28910 ft 453 kts 40°
2026-05-06 04:49 35.12230 -116.37813 28892 ft 451 kts 48°
2026-05-06 04:49 35.14383 -116.35007 28596 ft 457 kts 47°
2026-05-06 04:49 35.16562 -116.32215 28016 ft 447 kts 47°
2026-05-06 04:49 35.18700 -116.29477 27422 ft 438 kts 47°
2026-05-06 04:50 35.20750 -116.26812 26850 ft 432 kts 48°
2026-05-06 04:50 35.22787 -116.24143 26279 ft 427 kts 48°
2026-05-06 04:50 35.24761 -116.21456 25719 ft 422 kts 49°
2026-05-06 04:50 35.26709 -116.18782 25159 ft 417 kts 49°
2026-05-06 04:51 35.28636 -116.16134 24617 ft 414 kts 49°
2026-05-06 04:51 35.30526 -116.13558 24088 ft 406 kts 47°
2026-05-06 04:51 35.32414 -116.11025 23552 ft 396 kts 47°
2026-05-06 04:51 35.33629 -116.09377 23170 ft 389 kts 47°
2026-05-06 04:52 35.35969 -116.06135 22497 ft 376 kts 47°
2026-05-06 04:52 35.37688 -116.03757 22010 ft 368 kts 47°
2026-05-06 04:52 35.39384 -116.01429 21525 ft 366 kts 47°
2026-05-06 04:52 35.40517 -115.99859 21220 ft 373 kts 48°
2026-05-06 04:53 35.42238 -115.97448 20724 ft 374 kts 48°
2026-05-06 04:53 35.43966 -115.95059 20224 ft 375 kts 47°
2026-05-06 04:53 35.45709 -115.92673 19735 ft 375 kts 47°
2026-05-06 04:53 35.47431 -115.90304 19242 ft 376 kts 48°
2026-05-06 04:54 35.49171 -115.87892 18758 ft 376 kts 48°
2026-05-06 04:54 35.50908 -115.85486 18262 ft 376 kts 47°
2026-05-06 04:54 35.52650 -115.83081 17734 ft 375 kts 47°
2026-05-06 04:54 35.54361 -115.80710 17238 ft 364 kts 47°
2026-05-06 04:55 35.55992 -115.78443 16770 ft 354 kts 47°
2026-05-06 04:55 35.57610 -115.76202 16328 ft 346 kts 47°
2026-05-06 04:55 35.59194 -115.74010 15999 ft 336 kts 47°
2026-05-06 04:55 35.60715 -115.71930 15984 ft 321 kts 46°
2026-05-06 04:56 35.62218 -115.69926 15982 ft 316 kts 46°
2026-05-06 04:56 35.63698 -115.67946 15986 ft 313 kts 46°
2026-05-06 04:56 35.65145 -115.65993 15982 ft 311 kts 47°
2026-05-06 04:56 35.66597 -115.64022 16009 ft 311 kts 47°
2026-05-06 04:57 35.68088 -115.61999 16011 ft 326 kts 47°
2026-05-06 04:57 35.69646 -115.59890 16006 ft 340 kts 47°
2026-05-06 04:57 35.71266 -115.57698 16013 ft 350 kts 47°
2026-05-06 04:57 35.73006 -115.55554 15977 ft 356 kts 38°
2026-05-06 04:58 35.75110 -115.53971 16000 ft 353 kts 29°
2026-05-06 04:58 35.77228 -115.52516 16015 ft 352 kts 30°
2026-05-06 04:58 35.79355 -115.51018 16013 ft 351 kts 30°
2026-05-06 04:58 35.81474 -115.49519 16010 ft 350 kts 30°
2026-05-06 04:59 35.83592 -115.48035 16003 ft 349 kts 30°
2026-05-06 04:59 35.85654 -115.46595 15991 ft 323 kts 30°
2026-05-06 04:59 35.87499 -115.45296 15915 ft 299 kts 30°
2026-05-06 04:59 35.89301 -115.44027 15581 ft 297 kts 30°
2026-05-06 05:00 35.91094 -115.42767 15181 ft 296 kts 30°
2026-05-06 05:00 35.92886 -115.41513 14834 ft 295 kts 30°
2026-05-06 05:00 35.94680 -115.40265 14450 ft 295 kts 30°
2026-05-06 05:00 35.96455 -115.39032 14065 ft 295 kts 30°
2026-05-06 05:01 35.98245 -115.37782 13681 ft 295 kts 30°
2026-05-06 05:01 35.99855 -115.36234 13238 ft 295 kts 47°
2026-05-06 05:01 36.00949 -115.34095 12872 ft 296 kts 65°
2026-05-06 05:01 36.01406 -115.31641 12503 ft 300 kts 83°
2026-05-06 05:02 36.01328 -115.29068 12178 ft 300 kts 91°
2026-05-06 05:02 36.01186 -115.26491 11797 ft 300 kts 91°
2026-05-06 05:02 36.01058 -115.23911 11411 ft 301 kts 90°
2026-05-06 05:02 36.00941 -115.21318 11017 ft 301 kts 91°
2026-05-06 05:03 36.00804 -115.18726 10627 ft 302 kts 91°
2026-05-06 05:03 36.00669 -115.16166 10240 ft 302 kts 91°
2026-05-06 05:03 36.00548 -115.13629 9854 ft 289 kts 91°
2026-05-06 05:03 36.00426 -115.11205 9464 ft 276 kts 91°
2026-05-06 05:04 36.00306 -115.08887 9113 ft 265 kts 91°
2026-05-06 05:04 36.00191 -115.06654 8776 ft 255 kts 90°
2026-05-06 05:04 36.00083 -115.04530 8455 ft 247 kts 91°
2026-05-06 05:04 35.99976 -115.02439 8142 ft 240 kts 91°
2026-05-06 05:05 35.99949 -115.00424 7992 ft 225 kts 87°
2026-05-06 05:05 35.99940 -114.98542 7970 ft 214 kts 90°
2026-05-06 05:05 35.99896 -114.96676 7986 ft 227 kts 89°
2026-05-06 05:05 35.99879 -114.94711 7995 ft 228 kts 89°
2026-05-06 05:06 36.00126 -114.92826 7928 ft 221 kts 63°
2026-05-06 05:06 36.01079 -114.91422 7826 ft 219 kts 36°
2026-05-06 05:06 36.02417 -114.90440 7522 ft 226 kts 27°
2026-05-06 05:06 36.03939 -114.90033 7112 ft 228 kts 353°
2026-05-06 05:07 36.05437 -114.90731 6771 ft 235 kts 328°
2026-05-06 05:07 36.06738 -114.91961 6428 ft 238 kts 307°
2026-05-06 05:07 36.07364 -114.93834 6055 ft 236 kts 277°
2026-05-06 05:07 36.07376 -114.95788 5986 ft 217 kts 266°
2026-05-06 05:08 36.07331 -114.97587 5706 ft 210 kts 266°
2026-05-06 05:08 36.07295 -114.99410 5552 ft 197 kts 266°
2026-05-06 05:08 36.07278 -115.01032 5280 ft 195 kts 270°
2026-05-06 05:08 36.07348 -115.02716 4482 ft 191 kts 271°
2026-05-06 05:09 36.07370 -115.04333 3721 ft 177 kts 269°
2026-05-06 05:09 36.07374 -115.05722 3357 ft 148 kts 268°
2026-05-06 05:09 36.07370 -115.06917 3146 ft 135 kts 267°
2026-05-06 05:09 36.07379 -115.08049 2936 ft 132 kts 266°
2026-05-06 05:10 36.07373 -115.09190 2770 ft 133 kts 265°
2026-05-06 05:10 36.07377 -115.10334 2589 ft 132 kts 266°
2026-05-06 05:10 36.07370 -115.11475 2416 ft 131 kts 263°
2026-05-06 05:10 36.07367 -115.12589 2225 ft 130 kts 267°
2026-05-06 05:11 36.07369 -115.13634 2187 ft 109 kts 266°
2026-05-06 05:11 36.07366 -115.14461 2188 ft 78 kts 270°
2026-05-06 05:11 36.07381 -115.14845 2186 ft 28 kts 292°
2026-05-06 05:11 36.07467 -115.15043 2184 ft 25 kts 303°
2026-05-06 05:12 36.07543 -115.15138 2188 ft 0 kts 327°